TimeEDT,TemperatureF,Dew PointF,Humidity,Sea Level PressureIn,VisibilityMPH,Wind Direction,Wind SpeedMPH,Gust SpeedMPH,PrecipitationIn,Events,Conditions,WindDirDegrees,DateUTC
12:51 AM,66.0,62.1,87,30.06,10.0,Calm,Calm,-,N/A,,Clear,0,2013-05-18 04:51:00
1:51 AM,66.0,62.1,87,30.03,9.0,Calm,Calm,-,N/A,,Overcast,0,2013-05-18 05:51:00
2:51 AM,64.9,62.1,90,30.01,9.0,Calm,Calm,-,0.00,,Overcast,0,2013-05-18 06:51:00
3:51 AM,64.0,62.1,93,30.02,6.0,Calm,Calm,-,N/A,,Overcast,0,2013-05-18 07:51:00
4:51 AM,63.0,61.0,93,30.02,6.0,Calm,Calm,-,N/A,,Mostly Cloudy,0,2013-05-18 08:51:00
5:51 AM,63.0,61.0,93,30.02,7.0,East,3.5,-,N/A,,Clear,80,2013-05-18 09:51:00
6:42 AM,62.6,60.8,94,30.05,2.0,NNE,3.5,-,N/A,,Scattered Clouds,20,2013-05-18 10:42:00
6:49 AM,62.6,60.8,94,30.05,1.2,Calm,Calm,-,N/A,,Scattered Clouds,0,2013-05-18 10:49:00
6:51 AM,62.1,61.0,96,30.04,1.5,Calm,Calm,-,N/A,,Scattered Clouds,0,2013-05-18 10:51:00
6:56 AM,62.6,60.8,94,30.06,3.0,Calm,Calm,-,N/A,,Scattered Clouds,0,2013-05-18 10:56:00
7:51 AM,64.0,61.0,90,30.06,5.0,Calm,Calm,-,N/A,,Overcast,0,2013-05-18 11:51:00
8:51 AM,69.1,62.1,78,30.06,10.0,Calm,Calm,-,N/A,,Mostly Cloudy,0,2013-05-18 12:51:00
9:51 AM,71.1,61.0,70,30.07,10.0,SSW,5.8,-,N/A,,Mostly Cloudy,200,2013-05-18 13:51:00
10:51 AM,73.9,63.0,68,30.06,10.0,WSW,3.5,-,N/A,,Scattered Clouds,240,2013-05-18 14:51:00
11:51 AM,77.0,64.0,64,30.05,10.0,Calm,Calm,-,N/A,,Partly Cloudy,0,2013-05-18 15:51:00
12:51 PM,75.9,64.0,67,30.04,10.0,Variable,3.5,-,N/A,,Partly Cloudy,0,2013-05-18 16:51:00
1:51 PM,79.0,62.1,56,30.02,10.0,ESE,6.9,-,N/A,,Scattered Clouds,110,2013-05-18 17:51:00
2:51 PM,79.0,61.0,54,29.99,10.0,East,4.6,-,N/A,,Mostly Cloudy,100,2013-05-18 18:51:00
3:51 PM,82.0,61.0,49,29.97,10.0,South,5.8,-,N/A,,Mostly Cloudy,180,2013-05-18 19:51:00
4:51 PM,81.0,62.1,52,29.96,10.0,East,4.6,-,N/A,,Partly Cloudy,90,2013-05-18 20:51:00
5:51 PM,79.0,61.0,54,29.96,10.0,South,5.8,-,N/A,,Mostly Cloudy,170,2013-05-18 21:51:00
6:51 PM,75.9,62.1,62,29.97,10.0,South,4.6,-,N/A,,Overcast,190,2013-05-18 22:51:00
7:51 PM,73.0,63.0,71,29.99,10.0,South,4.6,-,N/A,,Partly Cloudy,170,2013-05-18 23:51:00
8:51 PM,72.0,63.0,73,29.99,10.0,Calm,Calm,-,N/A,,Overcast,0,2013-05-19 00:51:00
9:51 PM,70.0,63.0,78,30.01,10.0,Calm,Calm,-,N/A,,Scattered Clouds,0,2013-05-19 01:51:00
10:51 PM,69.1,63.0,81,30.00,10.0,ESE,3.5,-,N/A,,Overcast,110,2013-05-19 02:51:00
11:51 PM,69.1,64.0,84,30.00,10.0,Calm,Calm,-,N/A,,Overcast,0,2013-05-19 03:51:00